Temperature
11 10 10 10 10 10 10 10 10 9 9 9 10 10 9 9 9 9 9 9 8 8 8 8 8 7 7 7 7 7 7 6 6 6 6 6 6 6
10 10 10 10 10 10 10 10 10 9 9 9 9 9 9 8 8 8 8 8 8 8 7 7 7 7 6 6 6 6 6 6 6 6 6 6 6 6
9 9 9 9 9 9 9 9 9 9 9 8 8 8 8 8 7 7 7 7 7 7 7 6 6 6 6 6 6 6 6 5 5 5 5 5 5 5
9 9 9 9 9 9 8 8 8 8 8 8 8 8 7 7 7 7 7 6 6 6 6 6 6 5 5 5 5 5 5 5 5 5 5 5 5 5
8 8 8 8 8 8 8 8 8 8 7 7 7 7 7 6 6 6 6 6 6 6 5 5 5 5 5 5 5 5 4 4 4 4 4 4 4 4
7 7 7 7 7 7 7 7 7 7 7 7 7 6 6 6 6 6 5 5 5 5 5 5 4 4 4 4 4 4 4 4 4 4 4 4 4 4
7 7 7 7 7 7 7 6 6 6 6 6 6 6 6 5 5 5 5 4 4 4 4 4 4 4 4 3 3 3 3 3 3 3 3 3 3 3
6 6 6 6 6 6 6 6 6 6 6 5 5 5 5 5 5 4 4 4 4 4 4 3 3 3 3 3 3 3 3 3 3 3 3 3 3 3
6 6 6 6 5 5 5 5 5 5 5 5 5 5 5 5 4 4 4 3 3 3 3 3 3 3 2 2 2 2 2 2 2 2 2 2 2 2
5 5 5 5 5 5 5 4 4 5 5 5 4 4 4 4 4 3 3 3 3 2 2 2 2 2 2 2 2 2 2 2 2 2 1 1 1 1
4 4 4 4 4 4 4 4 4 4 4 4 4 4 3 3 3 3 3 2 2 2 2 2 2 2 2 1 1 1 1 1 1 1 1 1 1 1
3 3 3 3 3 3 3 3 3 3 3 3 3 3 3 3 2 2 2 2 1 1 1 1 1 1 1 1 1 1 1 0 1 1 0 0 0 0
3 3 3 2 3 3 3 3 3 3 2 2 2 2 2 2 2 1 1 1 1 1 1 0 0 0 0 0 0 0 0 0 0 0 -0 -0 -0 -0
2 2 2 2 2 2 2 2 2 2 2 2 1 1 1 1 1 1 1 0 0 0 -0 -0 -0 -0 -0 -0 -0 -0 -0 -0 -0 -0 -1 -1 -1 -1
1 1 1 1 1 1 1 1 1 1 1 1 1 1 1 0 0 0 -0 -0 -1 -1 -1 -1 -1 -1 -1 -1 -1 -1 -1 -1 -1 -1 -1 -1 -1 -1
0 0 0 0 0 0 0 0 0 0 0 0 0 0 -0 -0 -0 -1 -1 -1 -1 -1 -1 -2 -2 -2 -2 -2 -2 -2 -2 -2 -1 -2 -2 -2 -2 -2
-1 -1 -0 -0 -0 -0 -0 -0 -0 -0 -1 -1 -1 -1 -1 -1 -1 -1 -1 -2 -2 -2 -2 -2 -2 -2 -2 -2 -2 -2 -2 -2 -2 -2 -2 -2 -2 -2
-1 -1 -1 -1 -1 -1 -1 -1 -1 -1 -1 -1 -1 -1 -1 -1 -2 -2 -2 -2 -2 -2 -2 -3 -3 -3 -3 -3 -3 -3 -3 -3 -3 -3 -3 -2 -2 -2
-2 -2 -2 -2 -2 -2 -2 -2 -2 -2 -2 -2 -2 -2 -2 -2 -2 -2 -3 -3 -3 -3 -3 -3 -3 -3 -3 -3 -3 -3 -3 -3 -3 -3 -3 -3 -3 -2
-2 -2 -2 -2 -2 -2 -2 -2 -2 -2 -2 -2 -2 -2 -2 -2 -3 -3 -3 -3 -3 -3 -3 -4 -4 -4 -4 -4 -4 -4 -4 -4 -4 -4 -4 -4 -3 -3
-3 -3 -3 -3 -3 -3 -3 -3 -3 -3 -3 -3 -3 -3 -3 -3 -3 -3 -3 -3 -3 -3 -4 -4 -4 -4 -5 -5 -5 -4 -4 -5 -5 -4 -4 -4 -4 -3
-3 -3 -3 -3 -3 -3 -3 -3 -3 -3 -3 -3 -3 -4 -4 -4 -4 -4 -4 -4 -4 -4 -4 -4 -5 -5 -5 -5 -5 -5 -5 -5 -5 -5 -5 -5 -5 -5
-4 -4 -4 -4 -4 -4 -4 -4 -4 -3 -4 -4 -4 -4 -4 -4 -4 -4 -4 -4 -4 -4 -4 -5 -5 -5 -5 -6 -6 -6 -5 -5 -5 -5 -5 -5 -6 -5
Wind_Speed
8 8 6 5 5 5 5 5 5 6 7 5 3 4 5 6 7 6 6 7 6 5 4 3 2 2 2 2 3 3 2 2 3 4 5 4 5 5
7 7 7 5 5 5 5 5 5 5 6 4 3 3 4 4 7 7 6 7 7 6 5 4 4 3 3 2 2 2 2 2 3 3 4 5 5 4
6 8 8 6 5 5 4 5 5 4 5 3 2 2 3 4 4 4 5 5 5 6 6 6 5 5 4 3 3 2 2 2 2 3 4 5 5 4
7 7 7 5 6 5 5 6 6 5 5 5 2 2 3 4 4 3 3 4 4 5 6 6 6 5 5 4 3 2 2 1 1 2 3 4 5 4
6 7 7 6 7 6 6 6 5 5 4 4 3 2 1 2 2 2 2 2 3 4 6 5 5 5 5 4 4 3 3 2 1 2 3 4 4 4
5 6 7 8 8 8 7 7 5 5 4 4 3 2 2 2 3 3 2 2 2 1 3 3 4 4 4 4 4 3 3 2 2 2 2 2 3 3
5 5 6 8 9 9 7 7 7 5 5 5 4 3 3 3 4 3 3 1 1 1 1 1 2 2 3 4 4 4 4 3 2 2 2 2 1 2
5 5 4 5 7 8 10 9 9 8 8 6 5 5 5 4 3 4 3 2 2 2 2 1 1 2 3 4 4 4 4 3 3 2 2 1 1 1
4 4 3 4 4 4 5 6 7 9 10 7 7 7 6 7 7 5 4 3 3 3 2 1 1 2 3 4 4 4 4 4 3 3 2 2 1 1
3 4 4 4 4 4 3 2 3 4 5 5 6 6 5 6 7 6 5 3 2 0 2 2 1 1 1 2 3 3 3 3 3 3 2 1 1 1
2 3 3 3 5 5 4 4 3 2 2 4 5 6 7 9 9 6 5 4 2 1 1 2 1 0 1 1 2 1 1 2 2 3 3 2 1 1
2 2 3 4 4 5 4 5 5 3 4 4 3 4 5 6 8 6 7 5 3 2 2 2 2 1 1 1 1 2 2 2 2 2 3 3 2 0
2 2 2 3 4 4 3 4 6 5 4 5 4 3 3 3 3 3 4 4 4 2 3 3 2 1 1 1 1 1 1 1 2 2 2 2 2 2
2 2 2 3 3 3 2 3 5 5 4 4 4 3 3 3 2 3 4 4 3 3 5 4 3 3 2 1 1 1 1 1 1 1 2 2 2 3
2 2 2 2 1 1 2 3 3 3 4 4 4 3 3 4 4 4 4 5 5 3 3 3 3 3 3 2 2 1 1 1 1 1 1 1 2 2
2 2 2 1 1 0 1 1 1 2 3 3 3 3 3 3 3 3 3 3 2 1 1 2 4 4 3 2 2 2 2 2 1 1 1 2 3 4
3 2 1 1 1 1 1 1 1 1 2 2 3 3 4 4 3 3 3 3 3 2 2 1 2 3 3 3 2 3 3 2 3 2 1 2 3 4
2 0 1 1 1 1 1 0 1 1 2 3 3 4 4 4 4 3 3 3 4 3 3 3 3 1 0 3 6 4 3 3 2 2 2 2 3 3
1 1 1 1 1 1 1 1 1 1 2 3 3 3 4 4 4 4 4 3 4 4 3 3 3 3 2 2 2 6 4 2 2 2 2 3 3 4
1 1 1 1 1 1 1 1 1 1 1 2 3 3 4 4 4 4 4 5 4 4 3 3 4 5 5 3 2 2 6 4 2 2 2 2 4 6
2 1 1 1 1 1 1 1 1 2 2 2 2 3 3 4 4 4 4 6 5 4 5 4 4 6 3 2 1 2 2 7 6 4 2 2 2 2
2 2 2 1 1 1 1 1 1 1 2 2 2 2 2 3 3 4 4 4 4 4 4 3 3 3 3 4 4 3 2 2 5 8 8 7 3 3
2 2 1 1 1 1 1 1 1 1 2 2 2 2 2 2 2 2 3 4 4 4 4 3 3 3 4 4 4 4 4 3 2 3 4 9 13 14
Wind_Direction
214 215 222 224 216 215 207 201 210 235 238 224 212 206 201 194 195 195 202 205 205 204 199 204 216 236 244 251 268 282 301 312 315 322 329 325 317 317
218 217 223 225 220 214 213 219 216 222 239 222 215 211 200 204 198 192 202 198 198 192 196 203 218 227 231 243 261 268 271 278 296 316 326 326 319 313
223 219 225 218 220 220 214 216 219 214 234 242 219 203 194 202 200 193 192 191 193 195 200 207 213 216 217 228 240 251 252 260 288 318 331 338 333 321
223 222 227 221 221 220 220 223 224 215 217 228 230 205 209 199 186 188 187 184 194 203 207 208 207 212 216 221 227 226 230 253 292 321 332 335 333 332
227 226 227 218 226 224 221 224 226 220 211 206 211 215 205 183 161 165 181 197 208 209 205 208 216 220 217 215 216 211 215 228 265 306 324 334 337 340
238 232 229 224 227 224 223 221 216 212 204 196 198 197 197 184 165 174 197 221 217 198 206 208 216 219 216 211 208 208 212 222 252 289 310 326 341 346
248 244 241 235 232 229 224 215 206 210 203 201 200 199 196 183 192 179 185 178 237 175 179 221 211 219 225 214 213 217 218 225 247 272 290 300 335 349
254 255 248 240 238 236 228 220 208 208 207 203 205 208 204 191 168 171 160 156 230 196 162 236 180 213 234 234 236 227 220 223 236 249 269 280 320 339
252 250 257 247 242 230 229 223 221 219 209 200 202 207 195 186 171 176 180 185 203 181 143 217 209 223 239 243 235 223 219 220 223 234 239 231 238 322
258 249 242 241 230 211 199 207 229 231 213 204 200 199 190 176 176 176 170 144 105 116 148 188 207 239 292 280 239 222 216 216 225 230 220 219 241 319
272 256 241 241 233 215 195 197 215 226 187 180 179 175 170 167 160 142 143 145 171 194 165 163 173 322 329 310 297 282 229 233 239 228 220 224 246 305
301 276 247 242 236 229 210 195 200 205 170 151 144 143 145 156 164 165 162 161 163 189 186 149 147 102 334 312 326 331 328 300 284 237 232 229 222 224
287 287 271 247 245 236 233 214 204 187 165 152 140 132 126 130 135 142 146 154 160 184 169 142 141 129 156 278 316 330 343 321 310 278 252 232 232 219
274 280 274 259 254 235 228 206 188 173 151 149 155 166 161 155 142 128 121 115 117 143 154 141 147 158 150 178 265 312 332 312 288 286 286 277 274 264
295 289 283 270 275 241 202 182 159 152 152 163 174 178 165 147 128 113 102 98 85 84 123 156 145 148 152 180 217 251 311 306 291 276 277 277 273 269
317 294 289 293 331 276 194 148 124 160 166 171 164 145 128 129 137 142 139 131 111 75 75 146 162 152 165 196 205 230 224 250 274 263 274 273 262 250
326 338 2 24 36 30 56 93 128 146 159 153 152 151 151 154 155 150 145 145 154 160 160 151 169 182 191 186 214 234 234 245 247 248 256 277 266 248
322 283 273 268 227 207 204 224 185 178 177 165 165 168 169 168 162 156 156 166 178 184 179 170 156 136 319 257 222 228 231 239 239 227 212 251 277 266
312 254 252 247 234 214 218 244 252 204 178 173 173 173 169 169 170 174 177 179 189 193 189 177 172 167 180 250 249 209 200 211 215 232 222 222 256 277
296 263 262 259 253 233 228 250 244 192 174 177 173 175 175 176 179 185 189 191 193 192 192 189 193 194 196 201 221 237 210 204 207 228 245 251 265 281
293 276 267 259 252 242 230 233 228 208 185 174 179 181 182 182 189 192 192 198 195 192 204 211 214 199 172 144 222 253 234 221 218 214 213 252 277 282
291 281 278 265 247 233 228 228 231 207 186 180 180 179 181 183 193 196 197 197 200 201 207 201 175 166 175 201 227 242 250 255 246 246 241 229 211 222
295 286 282 272 261 238 225 217 213 203 190 183 180 178 177 185 192 199 205 205 199 201 201 196 184 187 200 210 226 242 251 257 256 255 257 249 244 250
Height
1483 1485 1486 1487 1489 1490 1491 1492 1493 1492 1491 1491 1492 1493 1494 1494 1494 1494 1494 1494 1494 1493 1493 1493 1493 1493 1493 1493 1493 1493 1492 1492 1492 1491 1490 1490 1489 1488
1476 1477 1479 1480 1481 1482 1484 1485 1486 1486 1485 1484 1486 1487 1487 1488 1488 1488 1488 1488 1488 1488 1488 1488 1489 1489 1489 1489 1489 1488 1488 1488 1488 1487 1487 1486 1486 1485
1468 1470 1471 1473 1473 1475 1476 1477 1478 1479 1478 1478 1479 1480 1481 1481 1482 1482 1482 1482 1482 1483 1483 1484 1484 1484 1484 1484 1484 1484 1484 1484 1484 1484 1483 1483 1483 1482
1461 1463 1464 1465 1466 1467 1469 1469 1470 1471 1472 1471 1472 1473 1474 1475 1476 1476 1477 1477 1477 1477 1478 1479 1479 1479 1479 1480 1480 1480 1480 1480 1480 1480 1480 1480 1480 1479
1455 1456 1457 1458 1459 1460 1461 1462 1463 1464 1465 1465 1465 1466 1467 1469 1470 1470 1471 1471 1472 1472 1473 1473 1474 1475 1475 1475 1476 1476 1476 1476 1476 1476 1477 1477 1477 1477
1449 1450 1451 1451 1452 1453 1453 1454 1455 1456 1457 1458 1459 1459 1461 1462 1463 1464 1465 1467 1467 1467 1468 1469 1470 1471 1471 1472 1472 1472 1472 1472 1473 1473 1473 1473 1474 1474
1443 1444 1444 1445 1445 1446 1446 1447 1448 1449 1450 1451 1452 1453 1454 1456 1457 1458 1460 1461 1462 1462 1463 1464 1465 1466 1467 1467 1468 1468 1469 1469 1469 1470 1470 1470 1470 1471
1437 1437 1437 1438 1438 1439 1439 1440 1441 1442 1442 1443 1445 1446 1448 1450 1452 1453 1455 1456 1457 1458 1459 1460 1461 1462 1462 1463 1464 1464 1465 1465 1465 1466 1467 1467 1468 1468
1431 1431 1431 1432 1432 1432 1432 1433 1434 1435 1437 1438 1439 1440 1443 1444 1446 1448 1449 1451 1452 1453 1455 1455 1457 1458 1459 1459 1460 1460 1461 1461 1462 1463 1463 1464 1464 1465
1425 1425 1426 1426 1426 1426 1426 1426 1427 1429 1431 1432 1434 1436 1438 1440 1441 1443 1445 1446 1448 1449 1450 1451 1453 1454 1455 1455 1456 1457 1457 1458 1459 1459 1460 1461 1461 1462
1420 1420 1421 1421 1421 1421 1421 1421 1422 1423 1425 1427 1429 1431 1432 1434 1436 1438 1439 1441 1443 1444 1446 1447 1448 1449 1451 1451 1452 1453 1454 1455 1456 1456 1457 1457 1458 1458
1416 1416 1416 1416 1416 1416 1416 1416 1417 1418 1420 1421 1423 1425 1427 1429 1431 1434 1435 1437 1438 1440 1442 1443 1444 1446 1447 1448 1449 1450 1451 1452 1452 1453 1454 1454 1454 1455
1412 1412 1412 1412 1413 1413 1413 1413 1413 1415 1415 1417 1418 1420 1422 1424 1427 1429 1431 1433 1435 1437 1438 1439 1440 1442 1444 1445 1446 1447 1447 1448 1449 1449 1450 1451 1451 1451
1409 1408 1408 1409 1409 1409 1409 1409 1410 1411 1412 1413 1414 1416 1418 1421 1423 1425 1427 1429 1432 1433 1435 1436 1437 1439 1440 1441 1442 1443 1444 1444 1445 1446 1447 1447 1448 1448
1406 1406 1406 1406 1405 1405 1406 1406 1407 1407 1408 1410 1411 1413 1415 1417 1420 1422 1424 1426 1428 1430 1431 1433 1434 1436 1437 1438 1439 1440 1440 1441 1442 1443 1443 1444 1445 1445
1403 1403 1403 1403 1402 1402 1403 1403 1404 1405 1406 1407 1409 1410 1412 1414 1417 1419 1421 1423 1425 1426 1428 1430 1431 1433 1433 1434 1435 1436 1437 1438 1438 1439 1440 1441 1441 1442
1400 1399 1399 1399 1399 1400 1400 1401 1401 1402 1404 1405 1407 1408 1410 1412 1414 1416 1418 1420 1422 1423 1425 1426 1428 1429 1430 1431 1431 1432 1433 1434 1435 1435 1436 1437 1438 1438
1398 1397 1397 1397 1397 1397 1398 1398 1399 1400 1402 1403 1404 1406 1408 1409 1411 1413 1415 1417 1418 1420 1422 1423 1425 1426 1427 1428 1429 1429 1430 1431 1431 1432 1432 1433 1434 1435
1396 1395 1395 1395 1395 1395 1396 1396 1397 1398 1400 1401 1402 1404 1405 1407 1409 1410 1412 1414 1415 1417 1419 1420 1421 1422 1423 1424 1425 1426 1427 1427 1428 1428 1428 1429 1429 1430
1393 1393 1393 1393 1393 1393 1394 1394 1395 1396 1397 1398 1400 1401 1403 1404 1406 1408 1409 1411 1412 1414 1415 1417 1418 1419 1420 1421 1421 1422 1423 1423 1424 1424 1425 1425 1425 1426
1391 1391 1391 1391 1391 1391 1391 1392 1393 1394 1395 1396 1397 1399 1400 1402 1403 1405 1406 1408 1409 1410 1412 1413 1415 1416 1417 1418 1418 1419 1420 1420 1420 1420 1420 1421 1420 1421
1389 1389 1389 1388 1388 1389 1389 1390 1391 1391 1392 1393 1395 1396 1397 1399 1400 1402 1403 1404 1406 1407 1409 1410 1412 1412 1413 1414 1414 1415 1416 1416 1417 1417 1417 1417 1416 1416
1387 1386 1386 1386 1386 1387 1387 1388 1388 1389 1390 1391 1392 1393 1394 1396 1397 1399 1400 1401 1403 1404 1405 1407 1408 1409 1410 1411 1411 1411 1412 1412 1412 1412 1413 1413 1413 1412